User: anonymous   Login
Location: Newark
(46.1292°N, 1.0086°W)
Time: 00:29:42
(UTC+00:00)
Language:

A-11 Canister half - Orbit

View from above orbital plane
View from above orbital plane
View from above satellite
View from above satellite

Ground track
Ground track

The orbit data is extracted from the following two-line orbital elements,

1    53U 60009E   19314.73095495 -.00000055 +00000-0 +29638-3 0  9995
2    53 047.2749 216.5689 0097162 151.2608 209.3580 12.17231702641800
Epoch (UTC): 10 November 2019 17:32:34
Eccentricity: 0.0097162
inclination: 47.2749°
perigee height: 1527 km
apogee height: 1682 km
right ascension of ascending node: 216.5689°
argument of perigee: 151.2608°
revolutions per day: 12.17231702
mean anomaly at epoch: 209.3580°
orbit number at epoch: 64180

The dashed part of the orbit path shows where the satellite is in the earth's shadow,  

DLR